Location: Góry Miechowskie
(50.3599°N, 20.1803°E)
Time: 22:11:23
(UTC+00:00)

Transit 2A Rocket - Pass Details

Date: 13 September 2024
Orbit: 582 x 908 km, 66.7° (Epoch: 09 October)

Event Time Altitude Azimuth Distance (km) Brightness Sun altitude
Exits shadow 01:04:48 25° 303° (WNW) 1,752 6.7 -27.2°
Maximum altitude 01:06:29 28° 329° (NNW) 1,628 6.8 -27.0°
Drops below altitude 10° 01:11:40 10° 28° (NNE) 2,590 8.7 -26.4°
Sets 01:14:33 0° 40° (NE) 3,510 9.7 -26.1°
